Location: Rounton
(54.4000°N, 1.3500°W)
Time: 04:18:55
(UTC+00:00)

S-56A Canister/Altair - Pass Details

Date: 02 December 2021
Orbit: 633 x 2499 km, 38.9° (Epoch: 17 January)

Event Time Altitude Azimuth Distance (km) Brightness Sun altitude
Rises 04:22:27 0° 252° (WSW) 3,712 - -31.1°
Reaches altitude 10° 04:27:03 10° 224° (SW) 2,413 - -30.4°
Maximum altitude 04:29:07 12° 201° (SSW) 2,136 - -30.1°
Drops below altitude 10° 04:31:02 10° 178° (S) 2,178 - -29.8°
Exits shadow 04:31:52 - 169° (S) 2,289 10.0 -29.7°
Sets 04:34:40 0° 146° (SSE) 2,954 10.9 -29.3°
